Flag for Brazil

Past Weather in Foz do Iguaçu, Paraná, Brazil — Yesterday and Last 2 Weeks

Now
81 °F

Clear.


Feels Like: 82 °F
Forecast: 93 / 70 °F
Wind: 7 mph from South

Location: Foz Do Iguacu Aeroporto
Current Time: Oct 23, 2020 at 9:44:04 pm
Latest Report: Oct 23, 2020 at 9:00 pm
Visibility: 10 mi
Pressure29.83 "Hg
Humidity: 58%
Dew Point: 64 °F
Location of Foz do IguaçuLocation

Past Weather in Foz do Iguaçu — Graph

°F

Foz do Iguaçu Temperature Yesterday

Maximum temperature yesterday: 93 °F (at 3:00 pm)
Minimum temperature yesterday: 70 °F (at 1:00 am)
Average temperature yesterday: 82 °F

High & Low Weather Summary for the Past Weeks

 TemperatureHumidityPressure
High95 °F (Oct 12, 3:00 pm)100% (Oct 9, 11:00 pm)30.12 "Hg (Oct 9, 11:00 pm)
Low57 °F (Oct 10, 1:00 am)20% (Oct 13, 5:00 pm)29.74 "Hg (Oct 9, 3:00 am)
Average77 °F66%29.93 "Hg
* Reported Oct 8 8:00 pm — Oct 23 8:00 pm, Foz do Iguaçu. Weather by CustomWeather, © 2020

Note: Actual official high and low records may vary slightly from our data, if they occured in-between our weather recording intervals... More about our weather records

Foz do Iguaçu Weather History for the Previous 24 Hours

Scroll right to see more
 ConditionsComfort  
Time TempWeatherWind HumidityBarometerVisibility
8:00 pm
Fri, Oct 23
84 °FClear.5 mph48%29.83 "Hg10 mi
7:00 pm86 °FClear.5 mph49%29.80 "Hg10 mi
6:00 pm91 °FSunny.8 mph36%29.80 "Hg10 mi
5:00 pm93 °FPassing clouds.5 mph32%29.80 "HgN/A
4:00 pm93 °FPassing clouds.6 mph34%29.83 "HgN/A
3:00 pm93 °FPassing clouds.5 mph34%29.86 "HgN/A
2:00 pm91 °FSunny.6 mph38%29.89 "Hg10 mi
1:00 pm91 °FSunny.3 mph41%29.92 "Hg10 mi
12:00 pm88 °FSunny.8 mph43%29.95 "Hg10 mi
11:00 am86 °FSunny.7 mph46%29.95 "Hg10 mi
10:00 am81 °FSunny.9 mph54%29.98 "Hg10 mi
9:00 am79 °FSunny.14 mph54%30.01 "Hg10 mi
8:00 am75 °FSunny.16 mph61%29.98 "Hg10 mi
7:00 am72 °FSunny.10 mph69%29.95 "Hg10 mi
6:00 am72 °FSunny.9 mph69%29.95 "Hg10 mi
5:00 am73 °FClear.8 mph65%29.92 "Hg10 mi
4:00 am73 °FClear.10 mph69%29.92 "Hg10 mi
3:00 am73 °FClear.8 mph69%29.92 "Hg10 mi
2:00 am75 °FClear.10 mph74%29.92 "Hg10 mi
1:00 am77 °FClear.10 mph61%29.92 "Hg10 mi
12:00 am77 °FClear.9 mph65%29.95 "Hg10 mi
11:00 pm
Thu, Oct 22
79 °FClear.6 mph61%29.95 "Hg10 mi
10:00 pm79 °FClear.5 mph58%29.92 "Hg10 mi
9:00 pm81 °FClear.6 mph54%29.92 "Hg10 mi
Weather by CustomWeather, © 2020

See weather overview